Location: Ingoldesthorpe
(52.8667°N, 0.5167°E)
Time: 04:45:58
(UTC+00:00)

Cosmos 381 Rocket - Pass Details

Date: 19 May 2025
Orbit: 954 x 995 km, 74.0° (Epoch: 13 June)

Event Time Altitude Azimuth Distance (km) Brightness Sun altitude
Exits shadow 23:17:17 21° 199° (SSW) 2,029 5.7 -16.7°
Maximum altitude 23:21:42 84° 114° (ESE) 994 4.5 -16.8°
Drops below altitude 10° 23:28:07 10° 27° (NNE) 2,758 7.7 -16.9°
Sets 23:30:41 0° 27° (NNE) 3,715 8.5 -17.0°
